Regional Weather Roundup
Issued by NWS

Home | Current Version | Previous Version | Text Only | Print | Product List | Glossary Off
Versions: 1 2 3 4 5 6 7 8 9 10 11 12 13 14 15 16 17 18 19 20 21 22 23 24 25 26 27 28 29 30 31 32 33 34 35 36 37 38 39 40 41 42 43 44 45 46 47 48 49 50

000
ASUS43 KDMX 300907
RWRIA

WEATHER ROUNDUP FOR IOWA
NATIONAL WEATHER SERVICE DES MOINES IA
400 AM CDT SAT AUG 30 2014

NOTE: "FAIR" INDICATES FEW OR NO CLOUDS BELOW 12,000 FEET WITH NO
SIGNIFICANT WEATHER AND/OR OBSTRUCTIONS TO VISIBILITY.

* - THESE STATIONS ARE NOT NWS STATIONS...THUS NOT UNDER NWS
QUALITY CONTROL.  THEY ALSO DO NOT REPORT WEATHER SUCH
AS PRECIPITATION OR FOG.

IAZ001>003-012>014-020>022-031>034-043>046-301000-
   NORTHWEST IOWA

CITY           SKY/WX    TMP DP  RH WIND       PRES   REMARKS
CARROLL *      PTCLDY    64  64 100 W6        29.84S
CHEROKEE *     CLOUDY    63  63 100 CALM      29.86R FOG
DENISON *      FOG       64  64 100 CALM      29.84S VSB 1/2
LE MARS *        N/A     64  64 100 CALM      29.87R
ORANGE CITY *  PTCLDY    64  63  94 W6        29.86S
SHELDON *      FOG       64  64 100 W5        29.85R VSB 1
SIOUX CITY     CLEAR     64  62  93 NW5       29.86R
SPENCER        MOCLDY    65  63  93 NW6       29.84R
STORM LAKE *   FOG       64  64 100 W8        29.85R VSB 0
$$

IAZ055>058-069>071-079>083-090>094-301000-
   SOUTHWEST IOWA

CITY           SKY/WX    TMP DP  RH WIND       PRES   REMARKS
ATLANTIC *     CLOUDY    66  66 100 SW5       29.85S FOG
AUDUBON *      MOCLDY    68  66  94 CALM      29.86S
CLARINDA *     CLEAR     63  63 100 CALM      29.89R FOG
COUNCIL BLFS * CLEAR     64  64 100 W5        29.86S FOG
CRESTON *      MOCLDY    64  64 100 W7        29.87R FOG
HARLAN  *      CLOUDY    66  66 100 VRB6      29.89S FOG
LAMONI         CLEAR     66  65  96 SW6       29.87R
RED OAK *      MOCLDY    63  63 100 CALM      29.87R FOG
SHENANDOAH *   FOG       63  63 100 SW3       29.89R VSB 1/4
$$

IAZ047>049-059>061-072>074-084-301000-
   CENTRAL IOWA

CITY           SKY/WX    TMP DP  RH WIND       PRES   REMARKS
AMES           CLOUDY    67  65  93 W8        29.80R
ANKENY *       MOCLDY    66  66 100 W7        29.82R
CHARITON *     PTCLDY    66  64  94 SW8       29.85R
DES MOINES     CLOUDY    67  65  93 SW3       29.82R
GRINNELL*      LGT RAIN  66  64  94 SW10      29.81S
KNOXVILLE *    CLOUDY    66  64  94 SW10      29.82R
MARSHALLTOWN   CLOUDY    67  66  97 SW8       29.78R
PELLA *        CLOUDY    66  66 100 SW8       29.83R
PERRY *          N/A     64  64 100 W6        29.83R
$$

IAZ004>006-015-016-023>025-035-036-301000-
   NORTH CENTRAL IOWA

CITY           SKY/WX    TMP DP  RH WIND       PRES   REMARKS
ALGONA *       PTCLDY    66  66 100 NW5       29.81S
CLARION *      MOCLDY    66  66 100 W6        29.80R
ESTHERVILLE    MOCLDY    64  63  96 NW7       29.82R
FORT DODGE *   CLOUDY    66  64  94 W6        29.83R
MASON CITY     CLOUDY    65  64  97 W7        29.80S
FOREST CITY *  MOCLDY    64  64 100 W6        29.78S
IOWA FALLS *   CLOUDY    66  64  94 W9        29.79S
$$

IAZ007>011-017>019-026>030-037>042-050>054-066-301000-
   NORTHEAST IOWA

CITY           SKY/WX    TMP DP  RH WIND       PRES   REMARKS
CEDAR RAPIDS   MOCLDY    67  66  97 SW8       29.79S
CHARLES CITY * HVY RAIN  68  66  94 NW10      29.78R
CLINTON *      MOCLDY    70  66  88 SW9       29.83F
DECORAH *      CLOUDY    66  66 100 S5        29.76S FOG
DUBUQUE        CLOUDY    70  69  97 S10       29.79S
MONTICELLO *   MOCLDY    70  70 100 S8        29.78S
OELWEIN *      CLOUDY    68  66  94 SW10      29.78S
WATERLOO       CLOUDY    67  65  93 SW9       29.76R
$$

IAZ064-065-067-068-078-301000-
   EAST CENTRAL IOWA

CITY           SKY/WX    TMP DP  RH WIND       PRES   REMARKS
DAVENPORT      LGT RAIN  69  66  90 S8        29.83R
IOWA CITY      MOCLDY    67  67 100 S8        29.82R
MT. PLEASANT * MOCLDY    70  68  94 SW7       29.83S
MUSCATINE *    PTCLDY    68  66  94 SW7       29.82S
QUAD CITIES    RAIN      70  68  93 S8        29.83R FOG
$$

IAZ062-063-075>077-085>089-095>099-301000-
   SOUTHEAST IOWA

CITY           SKY/WX    TMP DP  RH WIND       PRES   REMARKS
BURLINGTON     MOCLDY    73  71  93 SW12      29.84S
FAIRFIELD *    MOCLDY    68  66  94 SW7       29.83R
FORT MADISON * LGT RAIN  73  72  94 SW8       29.85S
KEOKUK *         N/A     72  68  88 SW12      29.84F
OSKALOOSA *    CLOUDY    66  64  94 SW9       29.83R
CENTERVILLE *  PTCLDY    66  66 100 SW6       29.86R
OTTUMWA        CLOUDY    67  65  93 SW9       29.83R
WASHINGTON *   MOCLDY    66  66 100 SW5       29.82S
$$

ABBREVIATIONS USED IN REMARKS
   TC - TEMPERATURES IN CELSIUS
  WCI - WIND CHILL INDEX
   HX - HEAT INDEX
  VSB - VISIBILITY
$$



USA.gov is the U.S. government's official web portal to all federal, state and local government web resources and services.